Wind_Speed
31 31 30 30 31 32 32 33 34 34 33 34 34 34 34 34 34 34 34 35 34 34 33 33 34 33 33 33 33 34 34 35 35 35 35 35 34 35 36 37 38 38 39 40
31 32 31 31 31 32 33 34 34 34 34 34 34 34 34 34 34 34 34 35 35 35 35 35 34 35 35 34 34 33 35 36 36 36 36 35 34 35 36 37 38 39 40 41
32 32 32 33 32 32 33 34 34 34 34 35 36 36 34 34 34 34 34 35 36 36 36 36 36 36 36 36 35 34 34 35 36 36 37 36 36 36 37 37 39 40 41 41
33 33 33 34 34 34 34 33 34 35 35 35 36 38 34 33 34 34 34 35 36 36 36 37 37 36 37 37 36 35 35 35 36 36 37 37 37 37 37 38 39 40 40 40
34 34 34 34 34 34 34 34 35 36 37 37 36 38 35 33 34 34 35 36 36 36 37 37 38 37 37 37 37 36 36 36 36 36 36 37 38 39 39 38 39 39 39 40
35 35 35 34 34 35 35 35 36 36 37 39 36 37 37 34 34 34 36 37 36 37 37 37 38 38 38 38 38 38 38 37 36 37 37 38 39 39 39 39 39 38 39 39
36 35 35 35 35 35 35 35 36 37 37 38 36 37 37 34 33 34 35 35 36 37 37 38 38 39 39 39 39 39 39 38 38 38 38 39 40 40 41 40 41 40 40 40
37 36 35 36 36 36 35 35 35 37 38 38 36 37 35 33 33 33 34 34 35 36 37 37 38 38 39 39 39 39 39 39 39 39 40 40 41 41 41 41 40 41 42 42
38 37 36 36 35 35 35 35 34 36 38 38 38 37 35 33 33 33 34 34 35 35 36 37 37 38 39 39 40 40 40 40 41 41 41 42 42 42 42 42 42 42 43 44
38 39 36 35 35 35 35 35 35 36 37 38 38 36 35 33 34 34 33 33 34 35 35 36 36 37 38 39 39 40 41 42 42 42 42 42 42 42 43 43 43 43 43 44
39 39 38 36 35 35 34 34 34 35 37 38 39 37 35 34 34 34 33 32 33 35 35 35 36 37 38 38 39 39 40 41 42 42 42 42 42 43 43 43 44 44 44 44
39 40 40 38 36 35 35 34 34 36 37 38 39 39 35 34 34 34 34 33 34 35 35 36 37 37 38 39 39 40 40 41 41 42 42 43 43 43 44 44 44 45 46 46
39 40 40 40 38 37 36 35 35 35 37 38 39 38 36 36 35 35 36 36 36 37 37 37 38 38 39 40 40 41 41 41 42 43 43 43 43 43 44 45 45 46 47 47
41 41 41 42 41 39 38 37 37 37 38 39 39 38 37 37 37 37 37 37 38 38 39 39 40 40 40 41 41 41 42 42 43 44 45 45 45 46 46 47 47 47 47 48
42 43 43 43 42 41 41 40 39 39 40 41 40 40 38 38 38 39 39 39 40 40 40 41 41 41 41 42 42 42 42 43 44 45 46 47 47 47 48 48 48 48 48 49
43 44 44 44 43 42 42 41 40 40 41 42 43 42 40 40 40 41 41 41 41 41 41 41 41 41 41 41 42 42 43 44 44 45 46 47 48 48 48 48 48 49 50 50
43 44 44 45 44 44 44 40 41 41 41 42 43 42 41 41 41 42 42 41 42 41 41 41 41 41 41 42 43 43 44 44 44 45 46 47 48 49 49 49 49 49 49 49
44 44 45 46 45 48 43 40 41 42 41 41 42 42 42 42 42 42 42 41 40 40 40 41 41 41 42 43 44 45 45 45 46 46 47 47 48 48 48 49 48 48 48 48
43 43 45 46 47 48 44 41 41 42 42 41 43 42 42 42 43 42 42 42 41 41 41 41 42 42 42 43 43 44 44 45 45 45 45 46 46 47 47 47 48 47 47 47
43 43 44 45 47 48 44 42 43 44 44 41 42 42 42 42 43 41 41 42 42 42 41 41 41 42 42 42 42 41 42 42 44 44 44 44 44 44 45 46 46 46 46 46
44 44 45 45 47 47 43 43 43 44 43 41 42 42 42 42 42 41 41 41 41 42 42 41 41 41 41 42 42 42 42 43 43 43 43 43 43 43 44 45 45 46 46 47
46 46 46 46 47 46 43 44 44 44 43 43 42 42 42 42 42 41 41 40 40 40 39 40 40 40 41 41 41 42 42 42 42 42 42 43 43 43 43 44 44 45 46 46
45 45 46 47 47 46 44 44 44 43 43 43 42 42 43 43 42 41 41 40 40 39 39 39 39 40 40 40 40 41 41 41 41 41 42 42 42 43 43 43 43 44 45 46
46 46 46 46 46 46 45 45 44 44 44 43 43 42 42 42 42 41 41 40 40 40 39 39 39 39 40 40 40 40 40 40 40 41 41 42 42 43 43 43 43 44 45 45
46 46 46 47 47 46 46 45 44 44 43 43 42 42 42 42 41 41 41 41 40 40 40 40 39 40 40 41 40 40 40 40 40 41 40 41 42 42 43 43 43 43 44 45
45 46 46 46 45 46 45 44 44 44 44 44 44 44 43 43 42 41 40 39 39 39 39 40 41 41 41 41 41 40 40 40 40 40 40 40 40 41 41 41 42 43 43 42
Wind_Direction
281 281 282 282 281 281 281 281 281 281 282 281 280 279 278 275 274 273 271 270 269 269 268 267 268 268 269 269 268 265 262 261 262 262 262 262 261 260 259 259 260 260 261 261
281 281 282 282 281 281 281 281 282 282 282 281 281 280 279 276 274 273 271 270 269 268 266 266 267 267 269 270 268 266 263 262 262 262 262 263 262 260 260 259 259 260 261 262
282 283 282 282 282 282 282 282 283 283 283 281 281 279 278 277 275 274 272 271 269 269 267 266 267 268 269 269 267 267 265 264 263 262 262 262 261 261 260 261 262 261 262 262
282 282 281 281 281 282 282 282 282 283 283 283 283 282 279 277 275 275 274 273 272 270 268 266 268 268 268 267 268 269 268 267 264 262 262 262 262 262 262 263 264 263 263 263
282 283 282 281 282 282 282 282 282 282 283 283 282 283 282 279 277 276 275 275 274 272 270 268 267 268 267 267 268 269 269 268 266 263 262 263 263 263 264 264 265 264 263 263
281 281 281 281 281 281 282 282 281 282 282 283 285 284 283 281 279 277 276 276 275 274 272 270 268 268 268 268 268 269 268 267 265 264 264 264 265 265 266 266 267 266 264 263
281 281 281 282 282 281 282 283 284 284 284 285 287 284 284 284 282 280 277 275 274 274 273 272 270 268 268 268 268 268 268 267 265 264 264 264 265 267 267 268 267 266 266 264
282 282 283 283 283 283 282 282 283 284 286 286 286 284 285 286 283 280 278 275 274 273 274 273 271 270 268 268 268 267 268 267 266 265 265 265 266 266 267 268 267 267 266 266
282 282 283 283 283 282 282 281 282 282 283 284 285 285 285 287 286 282 279 276 275 274 275 275 273 271 270 268 268 268 267 268 268 266 266 265 265 265 266 267 267 268 267 267
280 281 282 282 282 282 282 283 282 281 283 284 285 285 286 286 286 284 280 277 275 274 274 275 274 273 271 269 269 268 267 267 267 266 264 264 265 265 266 267 267 267 268 267
279 280 280 281 281 283 282 282 282 281 281 282 284 284 285 285 285 284 281 279 275 273 273 273 275 275 273 271 270 269 268 268 267 266 264 263 264 265 266 266 266 266 267 267
277 278 279 281 281 281 282 283 283 283 283 283 283 284 285 285 284 283 282 279 276 274 273 274 275 275 274 273 272 271 270 269 268 266 264 263 264 264 264 266 266 266 267 267
275 275 277 278 278 279 280 281 283 282 282 281 282 285 286 284 283 283 282 281 279 277 276 276 276 276 275 274 274 273 271 270 269 267 266 266 265 264 265 265 266 267 268 268
271 271 273 276 279 280 280 281 281 280 279 280 282 285 284 284 283 284 284 282 280 278 277 277 277 277 277 276 274 274 272 271 271 270 268 268 267 266 266 267 268 268 269 269
271 272 273 274 275 275 277 279 279 279 279 280 282 283 285 285 285 284 283 281 280 279 278 277 277 277 278 278 276 275 273 273 271 270 269 269 269 269 269 269 270 270 271 271
272 272 273 272 273 273 274 276 277 278 279 280 281 282 285 286 285 284 284 282 280 279 279 278 278 277 277 278 277 276 275 274 273 272 271 270 270 270 271 271 271 272 272 272
274 274 274 273 272 272 272 276 278 280 280 281 282 285 285 284 285 285 284 283 281 280 280 279 279 278 278 277 277 276 275 275 274 273 272 271 271 271 272 272 272 272 272 271
273 274 274 274 273 272 276 278 279 280 280 281 283 284 285 285 284 284 284 283 282 281 280 279 279 279 278 278 277 276 276 275 274 274 273 272 272 271 272 272 272 271 271 271
270 272 273 273 273 274 276 277 280 282 281 282 283 284 285 285 284 283 283 283 282 281 280 280 280 280 280 279 279 278 277 276 275 275 274 273 272 271 271 272 272 272 271 271
268 269 270 271 272 274 278 278 279 281 281 282 285 285 285 285 283 283 282 281 281 281 281 281 281 281 281 281 280 280 279 279 278 277 275 274 273 272 271 272 273 272 271 271
269 269 268 270 272 274 277 277 278 278 282 284 283 284 284 284 284 283 282 282 281 281 281 280 281 281 282 282 282 282 282 281 280 278 276 275 275 274 273 274 273 273 272 272
270 269 269 270 272 275 277 277 278 280 281 281 282 283 283 283 283 283 282 281 281 281 281 281 281 282 282 283 283 283 283 282 281 279 277 276 276 276 275 275 274 273 273 274
268 270 271 272 274 276 277 277 278 278 279 280 281 283 283 282 283 283 281 281 281 281 281 281 282 283 283 283 284 284 284 283 281 280 279 277 276 277 276 275 274 274 274 275
267 269 269 270 272 273 274 275 276 277 278 279 280 281 282 282 282 281 281 281 281 281 281 282 283 283 283 283 284 285 284 284 283 282 280 278 277 277 277 276 276 276 276 276
268 269 270 271 272 272 272 273 274 275 276 276 277 279 280 281 282 281 281 280 281 281 282 282 284 284 284 284 285 286 285 285 284 283 281 280 278 277 276 276 277 278 278 277
268 268 269 271 272 272 272 272 273 273 274 275 277 278 279 279 280 280 281 282 281 282 283 283 284 284 284 285 285 286 286 286 285 284 283 282 279 277 276 276 277 278 279 279
Height
5709 5710 5708 5707 5706 5705 5703 5702 5702 5701 5700 5698 5697 5697 5698 5696 5696 5695 5694 5695 5695 5695 5695 5695 5695 5695 5695 5694 5694 5693 5693 5694 5694 5694 5695 5696 5697 5698 5700 5702 5704 5705 5707 5709
5703 5702 5701 5699 5698 5697 5696 5694 5694 5693 5692 5689 5688 5689 5689 5688 5687 5686 5686 5685 5686 5686 5686 5686 5686 5686 5686 5685 5685 5684 5684 5685 5685 5686 5686 5687 5688 5690 5692 5693 5695 5696 5697 5699
5694 5695 5693 5692 5691 5689 5688 5687 5686 5684 5683 5681 5679 5680 5681 5680 5678 5678 5677 5676 5676 5676 5677 5678 5678 5677 5677 5677 5676 5676 5675 5676 5676 5677 5678 5678 5679 5681 5682 5684 5685 5686 5688 5689
5686 5686 5685 5683 5682 5681 5680 5679 5677 5675 5674 5672 5671 5668 5672 5671 5670 5669 5669 5668 5668 5667 5668 5668 5668 5668 5668 5668 5668 5668 5667 5667 5667 5668 5668 5669 5671 5672 5674 5675 5676 5677 5678 5679
5678 5677 5676 5675 5674 5672 5671 5670 5668 5667 5664 5663 5663 5659 5662 5662 5661 5661 5660 5659 5659 5658 5659 5659 5659 5659 5659 5658 5658 5659 5659 5659 5659 5659 5660 5661 5662 5663 5664 5665 5666 5667 5668 5669
5669 5668 5667 5667 5666 5664 5662 5661 5659 5657 5655 5653 5655 5651 5650 5653 5653 5652 5651 5650 5649 5649 5649 5649 5649 5649 5649 5649 5649 5649 5649 5650 5650 5650 5651 5652 5653 5653 5654 5655 5656 5657 5658 5658
5661 5660 5659 5658 5657 5655 5654 5652 5650 5647 5645 5644 5645 5641 5642 5644 5644 5642 5642 5641 5640 5639 5639 5639 5639 5639 5639 5639 5639 5639 5640 5640 5640 5641 5641 5642 5643 5643 5644 5645 5646 5647 5647 5648
5651 5651 5651 5649 5648 5646 5645 5643 5642 5639 5637 5635 5634 5632 5635 5635 5633 5632 5631 5631 5631 5630 5629 5629 5629 5629 5629 5629 5629 5629 5629 5630 5630 5630 5631 5632 5632 5633 5633 5634 5635 5636 5637 5637
5641 5642 5642 5640 5639 5638 5635 5634 5633 5630 5627 5625 5624 5624 5625 5625 5623 5623 5622 5621 5621 5620 5620 5619 5618 5618 5618 5619 5618 5618 5619 5619 5619 5620 5620 5621 5621 5622 5622 5623 5624 5625 5625 5626
5632 5631 5633 5631 5630 5628 5627 5626 5624 5621 5618 5615 5615 5615 5616 5616 5614 5612 5611 5610 5610 5610 5610 5609 5608 5608 5608 5608 5608 5608 5608 5608 5608 5609 5609 5609 5610 5610 5611 5612 5612 5613 5613 5614
5622 5621 5622 5622 5621 5619 5618 5617 5614 5612 5610 5608 5605 5609 5608 5607 5605 5603 5601 5600 5600 5600 5600 5599 5599 5598 5597 5597 5597 5597 5597 5597 5597 5597 5597 5597 5598 5598 5599 5599 5600 5601 5601 5602
5612 5611 5610 5611 5611 5609 5608 5607 5606 5604 5602 5599 5596 5600 5599 5597 5595 5594 5592 5592 5591 5590 5590 5589 5589 5588 5587 5587 5586 5586 5586 5586 5586 5586 5586 5586 5586 5586 5587 5587 5587 5588 5589 5589
5602 5600 5599 5599 5601 5600 5598 5598 5596 5595 5592 5590 5587 5590 5590 5588 5586 5585 5583 5582 5581 5580 5580 5579 5578 5578 5577 5576 5576 5575 5575 5575 5575 5574 5574 5574 5574 5574 5574 5574 5575 5575 5575 5575
5590 5589 5590 5590 5589 5589 5589 5589 5587 5585 5582 5581 5580 5580 5581 5578 5577 5575 5574 5572 5571 5570 5569 5568 5568 5567 5566 5566 5565 5564 5563 5563 5563 5562 5562 5562 5562 5562 5562 5562 5562 5562 5562 5562
5578 5578 5579 5579 5579 5578 5577 5578 5577 5575 5573 5572 5572 5570 5571 5569 5567 5565 5564 5562 5561 5560 5559 5558 5557 5556 5555 5554 5553 5552 5552 5551 5550 5550 5550 5550 5549 5549 5549 5549 5549 5548 5548 5548
5567 5567 5567 5567 5567 5566 5566 5567 5566 5565 5564 5562 5561 5560 5562 5559 5556 5555 5553 5552 5550 5549 5548 5546 5545 5544 5543 5542 5541 5540 5539 5538 5537 5537 5537 5536 5536 5535 5535 5535 5535 5534 5534 5533
5556 5555 5554 5554 5555 5553 5554 5558 5557 5555 5554 5552 5550 5551 5550 5548 5546 5544 5542 5541 5539 5538 5536 5535 5533 5532 5531 5530 5528 5527 5526 5525 5524 5524 5523 5522 5522 5521 5521 5521 5520 5520 5520 5519
5544 5543 5542 5541 5542 5538 5546 5548 5546 5544 5543 5542 5540 5540 5539 5537 5535 5533 5531 5529 5528 5526 5525 5523 5521 5520 5519 5517 5516 5514 5513 5512 5511 5510 5509 5508 5508 5507 5507 5506 5506 5506 5505 5505
5533 5532 5530 5528 5526 5527 5534 5536 5534 5532 5532 5532 5530 5528 5527 5525 5523 5523 5521 5518 5516 5515 5513 5512 5510 5508 5506 5505 5503 5502 5500 5499 5498 5497 5496 5495 5494 5493 5493 5492 5492 5492 5491 5491
5521 5520 5519 5516 5514 5515 5524 5526 5523 5520 5520 5523 5519 5517 5516 5513 5511 5513 5510 5507 5505 5503 5502 5500 5498 5496 5494 5493 5491 5489 5488 5487 5485 5483 5482 5481 5480 5479 5479 5478 5478 5477 5477 5477
5508 5507 5506 5505 5502 5504 5512 5513 5511 5509 5512 5511 5507 5505 5503 5501 5500 5500 5497 5495 5493 5492 5490 5488 5486 5485 5483 5481 5479 5477 5476 5474 5472 5471 5469 5468 5467 5466 5465 5464 5464 5463 5463 5463
5496 5495 5495 5494 5492 5497 5502 5500 5500 5499 5499 5496 5494 5492 5490 5489 5488 5487 5485 5484 5482 5480 5479 5477 5475 5473 5471 5469 5467 5465 5464 5462 5460 5458 5456 5455 5454 5453 5451 5451 5450 5449 5449 5448
5483 5484 5483 5483 5485 5488 5488 5488 5487 5486 5485 5484 5482 5480 5479 5477 5476 5475 5473 5472 5471 5469 5468 5466 5464 5462 5460 5458 5456 5454 5452 5449 5447 5446 5444 5442 5441 5440 5438 5437 5436 5436 5435 5434
5471 5471 5470 5470 5473 5475 5475 5474 5474 5473 5472 5471 5469 5468 5467 5465 5464 5463 5462 5460 5459 5458 5456 5454 5452 5450 5449 5447 5444 5442 5440 5437 5435 5433 5432 5430 5428 5427 5426 5424 5423 5422 5421 5420
5458 5458 5457 5457 5461 5461 5462 5461 5461 5460 5459 5458 5457 5456 5455 5453 5452 5451 5450 5449 5447 5446 5445 5443 5441 5439 5437 5435 5433 5430 5428 5425 5423 5421 5419 5417 5416 5414 5413 5412 5410 5409 5407 5406
5446 5446 5445 5446 5449 5448 5449 5449 5448 5447 5447 5446 5444 5444 5443 5441 5440 5439 5438 5437 5435 5434 5433 5431 5429 5427 5425 5423 5421 5418 5416 5413 5411 5409 5407 5405 5403 5401 5400 5399 5398 5395 5394 5392